Location: Unspecified
(0.0000°N, 0.0000°E)
Time: 20:37:58
(UTC+00:00)

Sedsat-1 - Visible Passes

Search period start: 23 July 2021 00:00
Search period end: 02 August 2021 00:00
Orbit: 542 x 1038 km, 31.4° (Epoch: 23 July)

Date Brightness Start Highest point End Pass type
(mag) Time Alt. Az. Time Alt. Az. Time Alt. Az.
23 Jul 9.4 04:56:02 10° NNW 04:59:32 25° NNE 05:02:57 10° E visible
23 Jul 10.4 19:17:25 10° W 19:23:17 29° NNW 19:28:58 10° NNE visible
24 Jul 9.6 04:22:44 10° NNW 04:26:10 23° NNE 04:29:27 10° E visible
24 Jul 10.4 18:43:30 10° W 18:49:35 31° NNW 18:55:34 10° NNE visible
25 Jul 9.6 03:52:35 21° NNE 03:52:48 21° NNE 03:56:00 10° E visible
25 Jul 7.6 05:35:18 10° WNW 05:39:21 48° SSW 05:43:18 10° SE visible
26 Jul 10.7 03:22:26 10° ENE 03:22:26 10° ENE 03:22:32 10° ENE visible
26 Jul 7.4 05:03:08 19° WNW 05:06:02 57° SSW 05:10:03 10° SE visible
26 Jul 11.4 19:29:22 10° NNW 19:30:00 10° NNW 19:30:39 10° NNW visible
27 Jul 7.3 04:32:52 66° SSW 04:32:52 66° SSW 04:36:49 10° SE visible
27 Jul 11.3 18:54:12 10° NW 18:56:16 11° NNW 18:58:21 10° N visible
28 Jul 9.6 04:02:27 18° SE 04:02:27 18° SE 04:03:35 10° SE visible
29 Jul 9.4 05:12:33 12° SSW 05:12:33 12° SSW 05:14:18 10° S visible
